Starlink 6350

operational
NORAD ID: 57226 Int'l Des: 2023-094 Owner: SPXS Country: US Constellation: starlink
LEOCIRCULAR

About Starlink 6350

Description loading...

Live Position

Loading 3D Globe...

Upcoming Passes

Altitude History

Altitude vs Time

uPlot chart will show altitude changes over time

Two-Line Element Set

1 57226U 23094J 25351.68474737 .00001162 00000-0 10108-3 0 9995
2 57226 43.0028 115.9739 0001084 274.2203 85.8516 15.02535128134787
Epoch: Dec 17, 2025 • Age: 15 hours

Current Status

Altitude 569.8 km
Velocity 7.58 km/s
Sub-Earth Point -38.35°S, 144.65°E
Launch Date Jul 7, 2023
Age 2.4 years
Type internet

Technical Details

Classification Payload
Mass 305.00 kg
Dry Mass 290.00 kg
Total Mass 305.00 kg
Length 0.20 m
Diameter 2.80 m
Span 9.00 m
Shape Box + pan
Manufacturer SPXS
Bus Type Starlink
Phase Status In Orbit
Owner/State SPXS/US

Large Constellations

Loading constellations...